Carroll, IA

4:58 AM CDT on April 25, 2018 (GMT -0500)
Neu

Weather History for KCIN - January, 2013

Change the Weather History Date:

Thursday, January 3, 2013

  Actual Average Record
Temperature  
Mean Temperature 20 °F -  
Max Temperature 30 °F 27 °F 50 °F (1998)
Min Temperature 10 °F 9 °F -14 °F (1968)
Degree Days  
Heating Degree Days 45    
Moisture  
Dew Point 13 °F    
Average Humidity 81    
Maximum Humidity 93    
Minimum Humidity 68    
Precipitation  
Precipitation 0.00 in - - ()
Sea Level Pressure  
Sea Level Pressure 30.28 in    
Wind  
Wind Speed 14 mph (WNW)    
Max Wind Speed 24 mph    
Max Gust Speed 28 mph    
Visibility 10 miles    
Events Snow    
Averages and records for this station are not official NWS values.
T = Trace of Precipitation, MM = Missing Value Source: NWS Daily Summary

Daily Weather History Graph

Daily Weather History Graph

Search for Another Location

Airport or City:

Astronomy

Jan. 03, 2013 Rise Set
Actual Time 7:47 AM CST 5:00 PM CST
Civil Twilight 7:16 AM CST 5:31 PM CST
Nautical Twilight 6:40 AM CST 6:06 PM CST
Astronomical Twilight 6:07 AM CST 6:40 PM CST
Moon 11:44 PM CST (1/3) 10:52 AM CST (1/3)
Length of Visible Light 10h 15m
Length of Day
9h 12m
Waning Gibbous, 65% of the Moon is Illuminated
Jan 3
Waning Gibbous
Jan 4
Last Quarter
Jan 11
New
Jan 18
First Quarter
Jan 26
Full

Hourly Weather History & Observations

Time (CST) Temp. Windchill Dew Point Humidity Pressure Visibility Wind Dir Wind Speed Gust Speed Precip Events Conditions
12:15 AM 30.2 °F 19.8 °F 26.6 °F 86% 30.16 in 10.0 mi West 13.8 mph - N/A   Overcast
12:35 AM 30.2 °F 19.8 °F 26.6 °F 86% 30.16 in 10.0 mi West 13.8 mph 19.6 mph N/A   Overcast
12:55 AM 30.2 °F 19.3 °F 26.6 °F 86% 30.15 in 10.0 mi West 15.0 mph - N/A   Overcast
1:15 AM 28.4 °F 17.0 °F 26.6 °F 93% 30.16 in 10.0 mi West 15.0 mph - N/A   Overcast
1:35 AM 30.2 °F 20.2 °F 26.6 °F 86% 30.16 in 10.0 mi WNW 12.7 mph - N/A   Overcast
1:55 AM 30.2 °F 20.2 °F 26.6 °F 86% 30.16 in 10.0 mi WNW 12.7 mph - N/A   Overcast
2:15 AM 30.2 °F 19.8 °F 26.6 °F 86% 30.17 in - WNW 13.8 mph 19.6 mph N/A   Overcast
2:35 AM 28.4 °F 17.0 °F 26.6 °F 93% 30.18 in 10.0 mi WNW 15.0 mph 20.7 mph N/A   Overcast
2:55 AM 30.2 °F 18.9 °F 26.6 °F 86% 30.18 in 10.0 mi WNW 16.1 mph 21.9 mph N/A   Overcast
3:15 AM 30.2 °F 18.9 °F 26.6 °F 86% 30.18 in 10.0 mi WNW 16.1 mph - N/A   Overcast
3:35 AM 30.2 °F 19.3 °F 26.6 °F 86% 30.18 in 10.0 mi WNW 15.0 mph - N/A   Overcast
3:55 AM 30.2 °F 19.3 °F 26.6 °F 86% 30.18 in 10.0 mi WNW 15.0 mph - N/A   Overcast
4:15 AM 30.2 °F 18.9 °F 26.6 °F 86% 30.19 in 10.0 mi WNW 16.1 mph - N/A   Overcast
4:35 AM 30.2 °F 18.9 °F 26.6 °F 86% 30.19 in 10.0 mi WNW 16.1 mph - N/A   Overcast
4:55 AM 28.4 °F 17.0 °F 24.8 °F 86% 30.20 in 10.0 mi NNW 15.0 mph - N/A   Overcast
5:15 AM 26.6 °F 14.3 °F 23.0 °F 86% 30.21 in 10.0 mi North 16.1 mph - N/A   Overcast
5:35 AM 24.8 °F 11.9 °F 21.2 °F 86% 30.23 in 10.0 mi NNW 16.1 mph 23.0 mph N/A   Overcast
6:15 AM 23.0 °F 8.7 °F 17.6 °F 80% 30.25 in 10.0 mi NNW 18.4 mph - N/A   Overcast
6:35 AM 19.4 °F 3.6 °F 15.8 °F 86% 30.26 in 9.0 mi NNW 19.6 mph 26.5 mph N/A   Overcast
6:55 AM 15.8 °F -1.5 °F 10.4 °F 79% 30.28 in 9.0 mi NW 20.7 mph 27.6 mph N/A   Mostly Cloudy
7:15 AM 14.0 °F 0.5 °F 8.6 °F 79% 30.29 in 10.0 mi NW 11.5 mph 19.6 mph N/A   Clear
7:35 AM 14.0 °F -2.0 °F 6.8 °F 73% 30.30 in 10.0 mi NW 16.1 mph - N/A   Clear
7:55 AM 12.2 °F -4.8 °F 5.0 °F 73% 30.31 in 10.0 mi NW 17.3 mph - N/A   Clear
8:15 AM 12.2 °F -4.3 °F 5.0 °F 73% 30.32 in 10.0 mi NW 16.1 mph - N/A   Clear
8:35 AM 10.4 °F -6.0 °F 5.0 °F 79% 30.32 in 10.0 mi NW 15.0 mph - N/A   Clear
8:55 AM 10.4 °F -6.6 °F 5.0 °F 79% 30.32 in 10.0 mi NW 16.1 mph - N/A   Clear
9:15 AM 10.4 °F -4.8 °F 5.0 °F 79% 30.33 in 10.0 mi NW 12.7 mph - N/A   Clear
9:35 AM 10.4 °F -7.2 °F 3.2 °F 73% 30.34 in 10.0 mi NW 17.3 mph - N/A   Clear
9:55 AM 12.2 °F -3.7 °F 5.0 °F 73% 30.35 in 10.0 mi NW 15.0 mph - N/A   Clear
10:15 AM 12.2 °F -4.3 °F 5.0 °F 73% 30.35 in 10.0 mi NW 16.1 mph - N/A   Clear
10:35 AM 12.2 °F -4.8 °F 5.0 °F 73% 30.36 in 10.0 mi NW 17.3 mph - N/A   Clear
10:55 AM 12.2 °F -4.8 °F 5.0 °F 73% 30.36 in 10.0 mi NW 17.3 mph - N/A   Clear
11:15 AM 12.2 °F -5.8 °F 5.0 °F 73% 30.36 in 10.0 mi NW 19.6 mph - N/A   Clear
11:35 AM 14.0 °F -2.5 °F 6.8 °F 73% 30.35 in 10.0 mi NW 17.3 mph 23.0 mph N/A   Clear
11:55 AM 14.0 °F -3.4 °F 6.8 °F 73% 30.34 in 10.0 mi NW 19.6 mph - N/A   Clear
12:15 PM 14.0 °F -2.5 °F 6.8 °F 73% 30.34 in 10.0 mi NW 17.3 mph - N/A   Clear
12:35 PM 15.8 °F 0.3 °F 6.8 °F 68% 30.33 in 10.0 mi NW 16.1 mph - N/A   Clear
12:55 PM 15.8 °F -0.6 °F 8.6 °F 73% 30.32 in 10.0 mi NW 18.4 mph - N/A   Clear
1:35 PM 15.8 °F 1.4 °F 8.6 °F 73% 30.32 in 10.0 mi NW 13.8 mph 19.6 mph N/A   Clear
1:55 PM 15.8 °F 0.3 °F 8.6 °F 73% 30.32 in 10.0 mi NW 16.1 mph - N/A   Clear
2:15 PM 15.8 °F 1.4 °F 8.6 °F 73% 30.32 in 10.0 mi WNW 13.8 mph 19.6 mph N/A   Clear
2:35 PM 15.8 °F 2.1 °F 8.6 °F 73% 30.32 in 10.0 mi NW 12.7 mph - N/A   Clear
2:55 PM 15.8 °F 2.7 °F 8.6 °F 73% 30.32 in 10.0 mi NW 11.5 mph - N/A   Clear
3:15 PM 15.8 °F 1.4 °F 10.4 °F 79% 30.33 in 10.0 mi WNW 13.8 mph - N/A   Mostly Cloudy
3:35 PM 15.8 °F 4.2 °F 10.4 °F 79% 30.33 in 10.0 mi WNW 9.2 mph 17.3 mph N/A Snow Light Snow
3:55 PM 15.8 °F 3.4 °F 10.4 °F 79% 30.34 in 9.0 mi NW 10.4 mph 16.1 mph N/A Snow Light Snow
4:15 PM 15.8 °F 5.1 °F 12.2 °F 86% 30.34 in 10.0 mi NW 8.1 mph - N/A Snow Light Snow
4:35 PM 17.6 °F 9.3 °F 12.2 °F 79% 30.34 in 10.0 mi NW 5.8 mph - N/A   Overcast
4:55 PM 17.6 °F 8.2 °F 12.2 °F 79% 30.34 in 10.0 mi WNW 6.9 mph - N/A   Overcast
5:15 PM 17.6 °F 7.3 °F 12.2 °F 79% 30.34 in 10.0 mi West 8.1 mph - N/A   Overcast
5:35 PM 15.8 °F 6.1 °F 12.2 °F 86% 30.34 in 10.0 mi West 6.9 mph - N/A   Mostly Cloudy
5:55 PM 12.2 °F 4.3 °F 8.6 °F 85% 30.35 in 10.0 mi WSW 4.6 mph - N/A   Scattered Clouds
6:15 PM 12.2 °F 4.3 °F 8.6 °F 85% 30.35 in 10.0 mi WSW 4.6 mph - N/A   Mostly Cloudy
6:35 PM 15.8 °F 8.6 °F 10.4 °F 79% 30.34 in 10.0 mi SW 4.6 mph - N/A   Overcast
6:55 PM 15.8 °F 8.6 °F 12.2 °F 86% 30.33 in 10.0 mi WSW 4.6 mph - N/A   Overcast
7:15 PM 15.8 °F 6.1 °F 12.2 °F 86% 30.33 in 10.0 mi West 6.9 mph - N/A   Overcast
7:35 PM 15.8 °F 3.4 °F 12.2 °F 86% 30.31 in 10.0 mi SW 10.4 mph - N/A   Overcast
7:55 PM 15.8 °F 2.7 °F 10.4 °F 79% 30.30 in 10.0 mi SW 11.5 mph - N/A   Partly Cloudy
8:15 PM 14.0 °F 2.0 °F 10.4 °F 86% 30.31 in 10.0 mi SW 9.2 mph - N/A   Clear
8:35 PM 14.0 °F 3.9 °F 8.6 °F 79% 30.30 in 10.0 mi SW 6.9 mph - N/A   Clear
8:55 PM 12.2 °F -1.0 °F 8.6 °F 85% 30.29 in 10.0 mi SW 10.4 mph - N/A   Clear
9:15 PM 12.2 °F -1.0 °F 8.6 °F 85% 30.29 in 10.0 mi SW 10.4 mph - N/A   Clear
9:35 PM 14.0 °F 0.5 °F 10.4 °F 86% 30.29 in 10.0 mi SW 11.5 mph - N/A   Clear
9:55 PM 14.0 °F 0.5 °F 10.4 °F 86% 30.29 in 10.0 mi SW 11.5 mph - N/A   Clear
10:15 PM 15.8 °F 0.9 °F 10.4 °F 79% 30.27 in 10.0 mi SW 15.0 mph - N/A   Clear
10:35 PM 15.8 °F 0.9 °F 10.4 °F 79% 30.27 in 10.0 mi SW 15.0 mph 21.9 mph N/A   Clear
10:55 PM 15.8 °F 1.4 °F 10.4 °F 79% 30.27 in 10.0 mi SW 13.8 mph - N/A   Clear
11:15 PM 15.8 °F -0.2 °F 12.2 °F 86% 30.25 in 10.0 mi SW 17.3 mph - N/A   Clear
11:35 PM 15.8 °F -0.6 °F 12.2 °F 86% 30.25 in 10.0 mi SW 18.4 mph 24.2 mph N/A Snow Light Snow
11:55 PM 15.8 °F -2.7 °F 12.2 °F 86% 30.23 in - SW 24.2 mph - N/A Snow Light Snow